Location: Gro�sch�nbrunn
(49.5760°N, 11.8868°E)
Time: 13:20:48
(UTC+00:00)

Cosmos 1833 Rocket - Pass Details

Date: 18 September 2020
Orbit: 831 x 841 km, 71.0° (Epoch: 25 October)

Event Time Altitude Azimuth Distance (km) Brightness Sun altitude
Rises 19:59:17 0° 333° (NNW) 3,408 6.9 -25.1°
Reaches altitude 10° 20:01:48 10° 338° (NNW) 2,470 5.9 -25.5°
Maximum altitude 20:07:21 53° 55° (NE) 1,030 2.9 -26.2°
Enters shadow 20:07:25 53° 58° (ENE) 1,030 2.9 -26.2°
